Change the Weather History Date:

Thursday, October 18, 2012

  Actual Average Record
Temperature  
Mean Temperature 43 °F 45 °F  
Max Temperature 60 °F 58 °F 82 °F (2003)
Min Temperature 26 °F 32 °F 7 °F (1905)
Degree Days  
Heating Degree Days 22 20  
Month to date heating degree days 321 302  
Since 1 July heating degree days 445 608  
Cooling Degree Days 0 0  
Month to date cooling degree days 0 0  
Year to date cooling degree days 531 406  
Moisture  
Dew Point 22 °F    
Average Humidity 48    
Maximum Humidity 78    
Minimum Humidity 18    
Precipitation  
Precipitation 0.00 in 0.02 in 0.34 in (1933)
Month to date precipitation 0.35 0.44  
Year to date precipitation 6.82 10.09  
Snow  
Snow 0.00 in 0.10 in 5.00 in (1866)
Month to date snowfall T 1.2  
Since 1 July snowfall T 2.8  
Since 1 September snowfall T 2.5  
Snow Depth 0.00 in    
Sea Level Pressure  
Sea Level Pressure 30.26 in    
Wind  
Wind Speed 5 mph (West)    
Max Wind Speed 23 mph    
Max Gust Speed 29 mph    
Visibility 10 miles    
Events      
T = Trace of Precipitation, MM = Missing Value Source: NWS Daily Summary

Daily Weather History Graph

Daily Weather History Graph

Search for Another Location

Airport or City:

Trip Planner

Search our weather history database for the weather conditions in past years. The results will help you decide how hot, cold, wet, or windy it might be!

Date:

Astronomy

Oct. 18, 2012 Rise Set
Actual Time 7:50 AM MDT 6:34 PM MDT
Civil Twilight 7:19 AM MDT 7:05 PM MDT
Nautical Twilight 6:44 AM MDT 7:40 PM MDT
Astronomical Twilight 6:09 AM MDT 8:15 PM MDT
Moon 11:49 AM MDT (10/18) 8:59 PM MDT (10/18)
Length of Visible Light 11h 45m
Length of Day
10h 44m
Waxing Crescent, 15% of the Moon is Illuminated
Oct 18
Waxing Crescent
Oct 21
First Quarter
Oct 29
Full
Nov 6
Last Quarter
Nov 13
New

Hourly Weather History & Observations

Time (MDT) Temp. Windchill Dew Point Humidity Pressure Visibility Wind Dir Wind Speed Gust Speed Precip Events Conditions
12:53 AM 37.0 °F 31.0 °F 21.9 °F 54% 30.32 in 10.0 mi West 8.1 mph - N/A   Clear
1:53 AM 37.0 °F 31.6 °F 21.9 °F 54% 30.32 in 10.0 mi West 6.9 mph - N/A   Clear
2:53 AM 36.0 °F - 21.0 °F 55% 30.32 in 10.0 mi Calm Calm - N/A   Clear
3:53 AM 35.1 °F 32.2 °F 21.9 °F 59% 30.34 in 10.0 mi WSW 3.5 mph - N/A   Clear
4:53 AM 34.0 °F 29.8 °F 21.9 °F 61% 30.33 in 10.0 mi WSW 4.6 mph - N/A   Clear
5:53 AM 30.0 °F - 21.0 °F 69% 30.35 in 10.0 mi Calm Calm - N/A   Clear
6:53 AM 28.9 °F 21.9 °F 21.9 °F 75% 30.36 in 10.0 mi West 6.9 mph - N/A   Clear
7:53 AM 28.0 °F - 21.0 °F 75% 30.37 in 8.0 mi Calm Calm - N/A   Clear
8:53 AM 28.0 °F 22.8 °F 23.0 °F 81% 30.39 in 10.0 mi NNW 4.6 mph - N/A   Clear
9:53 AM 33.1 °F - 23.0 °F 66% 30.37 in 10.0 mi Calm Calm - N/A   Clear
10:53 AM 37.9 °F - 23.0 °F 55% 30.35 in 10.0 mi Calm Calm - N/A   Clear
11:53 AM 44.1 °F 42.5 °F 21.0 °F 40% 30.32 in 10.0 mi ESE 3.5 mph - N/A   Partly Cloudy
12:53 PM 52.0 °F - 18.0 °F 26% 30.27 in 10.0 mi North 5.8 mph - N/A   Clear
1:53 PM 54.0 °F - 16.0 °F 22% 30.24 in 10.0 mi Calm Calm - N/A   Clear
2:53 PM 59.0 °F - 16.0 °F 19% 30.21 in 10.0 mi WNW 20.7 mph 25.3 mph N/A   Clear
3:53 PM 57.9 °F - 21.9 °F 25% 30.18 in 10.0 mi West 18.4 mph 23.0 mph N/A   Partly Cloudy
4:53 PM 59.0 °F - 25.0 °F 27% 30.17 in 10.0 mi West 19.6 mph 25.3 mph N/A   Clear
5:53 PM 59.0 °F - 23.0 °F 25% 30.17 in 10.0 mi West 12.7 mph - N/A   Clear
6:53 PM 55.9 °F - 24.1 °F 29% 30.17 in 10.0 mi WSW 5.8 mph - N/A   Clear
7:53 PM 53.1 °F - 25.0 °F 34% 30.18 in 10.0 mi SSW 4.6 mph - N/A   Clear
8:53 PM 48.9 °F - 25.0 °F 39% 30.17 in 10.0 mi Calm Calm - N/A   Clear
9:53 PM 42.1 °F - 26.1 °F 53% 30.16 in 10.0 mi Calm Calm - N/A   Clear
10:53 PM 43.0 °F - 26.1 °F 51% 30.12 in 10.0 mi Calm Calm - N/A   Clear
11:53 PM 39.0 °F - 26.1 °F 60% 30.09 in 10.0 mi Calm Calm - N/A   Clear